Weather History for KAPC - March, 2015

Change the Weather History Date:

Saturday, March 14, 2015

  Actual Average Record
Temperature  
Mean Temperature 63 °F 52 °F  
Max Temperature 78 °F 64 °F 78 °F (2004)
Min Temperature 47 °F 40 °F 30 °F (2002)
Degree Days  
Heating Degree Days 2    
Month to date heating degree days 163  
Since 1 July heating degree days 1891  
Cooling Degree Days 0    
Month to date cooling degree days 0  
Year to date cooling degree days 0  
Growing Degree Days 12 (Base 50)    
Moisture  
Dew Point 53 °F    
Average Humidity 73    
Maximum Humidity 100    
Minimum Humidity 45    
Precipitation  
Precipitation 0.00 in - - ()
Month to date precipitation 0.02  
Year to date precipitation 2.39  
Sea Level Pressure  
Sea Level Pressure 30.03 in    
Wind  
Wind Speed 6 mph (ESE)    
Max Wind Speed 17 mph    
Max Gust Speed 22 mph    
Visibility 10 miles    
Events      
T = Trace of Precipitation, MM = Missing Value Source: NWS Daily Summary

Daily Weather History Graph

Daily Weather History Graph

Search for Another Location

Airport or City:

Trip Planner

Search our weather history database for the weather conditions in past years. The results will help you decide how hot, cold, wet, or windy it might be!

Date:

Astronomy

Mar. 14, 2015 Rise Set
Actual Time 7:22 AM PDT 7:15 PM PDT
Civil Twilight 6:55 AM PDT 7:41 PM PDT
Nautical Twilight 6:25 AM PDT 8:12 PM PDT
Astronomical Twilight 5:54 AM PDT 8:43 PM PDT
Moon 2:50 AM PDT (3/14) 1:13 PM PDT (3/14)
Length of Visible Light 12h 45m
Length of Day
11h 53m
Last Quarter, 39% of the Moon is Illuminated
Mar 14
Last Quarter
Mar 20
New
Mar 27
First Quarter
Apr 4
Full
Apr 11
Last Quarter

Hourly Weather History & Observations

Time (PDT) Temp. Dew Point Humidity Pressure Visibility Wind Dir Wind Speed Gust Speed Precip Events Conditions
12:54 AM 57.0 °F 52.0 °F 83% 30.09 in 10.0 mi East 4.6 mph - N/A   Clear
1:54 AM 55.0 °F 50.0 °F 83% 30.08 in 10.0 mi ESE 3.5 mph - N/A   Clear
2:54 AM 51.1 °F 48.9 °F 92% 30.09 in 10.0 mi Calm Calm - N/A   Clear
3:54 AM 50.0 °F 48.0 °F 93% 30.07 in 10.0 mi East 3.5 mph - N/A   Clear
4:54 AM 46.9 °F 46.0 °F 97% 30.05 in 10.0 mi ESE 3.5 mph - N/A   Clear
5:54 AM 51.1 °F 48.9 °F 92% 30.06 in 10.0 mi ENE 5.8 mph - N/A   Clear
6:54 AM 48.0 °F 46.0 °F 93% 30.09 in 10.0 mi Calm Calm - N/A   Clear
7:54 AM 50.0 °F 48.9 °F 96% 30.09 in 10.0 mi SE 3.5 mph - N/A   Clear
8:54 AM 57.0 °F 53.1 °F 87% 30.10 in 10.0 mi Calm Calm - N/A   Clear
9:54 AM 61.0 °F 55.9 °F 83% 30.09 in 10.0 mi Variable 4.6 mph - N/A   Clear
10:54 AM 66.0 °F 57.0 °F 73% 30.09 in 10.0 mi WSW 5.8 mph - N/A   Clear
11:54 AM 73.0 °F 57.0 °F 57% 30.07 in 10.0 mi ESE 9.2 mph - N/A   Clear
12:54 PM 75.9 °F 57.0 °F 52% 30.05 in 10.0 mi East 13.8 mph - N/A   Clear
1:54 PM 75.9 °F 55.9 °F 50% 30.01 in 10.0 mi East 17.3 mph - N/A   Clear
2:54 PM 78.1 °F 55.0 °F 45% 29.99 in 10.0 mi East 15.0 mph - N/A   Clear
3:54 PM 78.1 °F 55.9 °F 46% 29.97 in 10.0 mi East 12.7 mph - N/A   Clear
4:54 PM 77.0 °F 57.9 °F 52% 29.96 in 10.0 mi East 11.5 mph - N/A   Clear
5:54 PM 75.9 °F 57.0 °F 52% 29.94 in 10.0 mi East 8.1 mph - N/A   Clear
6:54 PM 73.0 °F 57.9 °F 59% 29.94 in 10.0 mi Calm Calm - N/A   Clear
7:54 PM 66.0 °F 57.9 °F 75% 29.94 in 10.0 mi ESE 4.6 mph - N/A   Clear
8:54 PM 64.0 °F 57.0 °F 78% 29.95 in 10.0 mi SE 3.5 mph - N/A   Clear
9:54 PM 64.9 °F 53.1 °F 65% 29.96 in 10.0 mi South 5.8 mph - N/A   Clear
10:54 PM 64.0 °F 52.0 °F 65% 29.99 in 10.0 mi Calm Calm - N/A   Clear
11:54 PM 62.1 °F 53.1 °F 72% 29.97 in 10.0 mi NE 4.6 mph - N/A   Clear